Central Point, OR

3:05 AM PST on February 21, 2017 (GMT -0800)
Rogue Valley International-Medford

Weather History for KMFR - November, 2012

Change the Weather History Date:

Friday, November 30, 2012

  Actual Average Record
Temperature  
Mean Temperature 52 °F 41 °F  
Max Temperature 59 °F 48 °F 63 °F (1960)
Min Temperature 44 °F 34 °F 15 °F (1936)
Degree Days  
Heating Degree Days 13 24  
Month to date heating degree days 519 609  
Since 1 July heating degree days 761 969  
Cooling Degree Days 0 0  
Month to date cooling degree days 0 0  
Year to date cooling degree days 960 829  
Growing Degree Days 2 (Base 50)    
Moisture  
Dew Point 45 °F    
Average Humidity 77    
Maximum Humidity 100    
Minimum Humidity 53    
Precipitation  
Precipitation 0.53 in 0.12 in 1.77 in (1917)
Month to date precipitation 5.13 3.02  
Year to date precipitation 21.21 14.86  
Snow  
Snow 0.00 in 0.00 in - ()
Month to date snowfall 0.0 0.2  
Since 1 July snowfall 0.0 0.2  
Snow Depth 0.00 in    
Sea Level Pressure  
Sea Level Pressure 29.61 in    
Wind  
Wind Speed 3 mph (ENE)    
Max Wind Speed 20 mph    
Max Gust Speed 29 mph    
Visibility 8 miles    
Events Rain    
T = Trace of Precipitation, MM = Missing Value Source: NWS Daily Summary

Daily Weather History Graph

Daily Weather History Graph

Search for Another Location

Airport or City:

Trip Planner

Search our weather history database for the weather conditions in past years. The results will help you decide how hot, cold, wet, or windy it might be!

Date:

Astronomy

Nov. 30, 2012 Rise Set
Actual Time 7:20 AM PST 4:39 PM PST
Civil Twilight 6:49 AM PST 5:11 PM PST
Nautical Twilight 6:14 AM PST 5:46 PM PST
Astronomical Twilight 5:40 AM PST 6:20 PM PST
Moon 6:40 PM PST (11/30) 8:56 AM PST (11/30)
Length of Visible Light 10h 22m
Length of Day
9h 19m
Waning Gibbous, 96% of the Moon is Illuminated
Nov 30
Waning Gibbous
Dec 6
Last Quarter
Dec 13
New
Dec 19
First Quarter
Dec 28
Full

Hourly Weather History & Observations

Time (PST) Temp. Windchill Dew Point Humidity Pressure Visibility Wind Dir Wind Speed Gust Speed Precip Events Conditions
12:51 AM 46.4 °F 45.2 °F 44.6 °F 93% 29.55 in 3.0 mi North 3.5 mph - 0.02 in   Overcast
12:53 AM 46.0 °F - 44.1 °F 93% 29.55 in 2.5 mi Calm Calm - 0.02 in   Overcast
1:16 AM 46.4 °F 44.3 °F 44.6 °F 93% 29.53 in 2.5 mi East 4.6 mph - 0.01 in Rain Rain
1:24 AM 46.4 °F 44.3 °F 44.6 °F 93% 29.53 in 3.0 mi NNE 4.6 mph - 0.02 in Rain Light Rain
1:53 AM 46.0 °F - 45.0 °F 96% 29.56 in 1.8 mi Calm Calm - 0.08 in Rain Heavy Rain
2:11 AM 46.4 °F 44.3 °F 44.6 °F 93% 29.54 in 2.5 mi East 4.6 mph - 0.09 in Rain Heavy Rain
2:15 AM 46.4 °F 44.3 °F 44.6 °F 93% 29.54 in 3.0 mi NE 4.6 mph - 0.10 in Rain Rain
2:53 AM 46.0 °F 42.5 °F 45.0 °F 96% 29.56 in 6.0 mi SW 6.9 mph - 0.11 in Rain Light Rain
3:17 AM 46.4 °F 44.3 °F 44.6 °F 93% 29.52 in 5.0 mi South 4.6 mph - 0.03 in Rain Light Rain
3:34 AM 46.4 °F 42.9 °F 44.6 °F 93% 29.53 in 6.0 mi West 6.9 mph - 0.03 in   Overcast
3:53 AM 46.0 °F - 45.0 °F 96% 29.55 in 3.0 mi Calm Calm - 0.05 in Rain Rain
4:53 AM 46.9 °F - 46.0 °F 97% 29.60 in 5.0 mi Calm Calm - 0.14 in Rain Light Rain
5:53 AM 48.0 °F - 46.0 °F 93% 29.59 in 10.0 mi East 8.1 mph - 0.05 in Rain Light Rain
6:53 AM 46.9 °F - 45.0 °F 93% 29.62 in 9.0 mi Calm Calm - 0.01 in   Overcast
7:53 AM 46.9 °F - 45.0 °F 93% 29.62 in 7.0 mi Calm Calm - 0.02 in   Overcast
8:53 AM 48.0 °F - 46.9 °F 96% 29.64 in 10.0 mi Calm Calm - 0.00 in   Overcast
9:29 AM 50.0 °F - 46.4 °F 87% 29.65 in 10.0 mi NNE 3.5 mph - 0.00 in   Overcast
9:42 AM 50.0 °F - 46.4 °F 87% 29.65 in 10.0 mi Calm Calm - 0.00 in   Overcast
9:53 AM 50.0 °F - 46.9 °F 89% 29.65 in 10.0 mi Calm Calm - 0.00 in   Overcast
10:49 AM 50.0 °F - 46.4 °F 87% 29.66 in 10.0 mi Calm Calm - N/A   Overcast
10:53 AM 50.0 °F - 46.0 °F 86% 29.66 in 10.0 mi Calm Calm - N/A   Overcast
11:53 AM 51.1 °F - 46.9 °F 86% 29.65 in 10.0 mi Calm Calm - N/A   Overcast
12:00 PM 51.8 °F - 46.4 °F 82% 29.65 in 10.0 mi Calm Calm - N/A   Overcast
12:53 PM 53.1 °F - 48.0 °F 83% 29.65 in 10.0 mi Variable 5.8 mph - 0.00 in Rain Light Rain
1:53 PM 57.0 °F - 46.0 °F 67% 29.64 in 10.0 mi SSW 6.9 mph 16.1 mph 0.00 in   Mostly Cloudy
2:53 PM 59.0 °F - 43.0 °F 55% 29.63 in 10.0 mi Variable 3.5 mph - N/A   Mostly Cloudy
3:53 PM 57.9 °F - 43.0 °F 58% 29.64 in 10.0 mi Calm Calm - N/A   Overcast
4:53 PM 54.0 °F - 46.0 °F 75% 29.64 in 10.0 mi Calm Calm - N/A   Mostly Cloudy
5:53 PM 52.0 °F - 46.0 °F 80% 29.64 in 10.0 mi ENE 4.6 mph - N/A   Mostly Cloudy
6:53 PM 51.1 °F - 46.0 °F 83% 29.63 in 10.0 mi WNW 3.5 mph - N/A   Mostly Cloudy
7:53 PM 48.9 °F - 46.0 °F 90% 29.62 in 10.0 mi Calm Calm - N/A   Mostly Cloudy
8:53 PM 46.9 °F - 44.1 °F 90% 29.62 in 10.0 mi SE 5.8 mph - N/A   Mostly Cloudy
9:53 PM 46.9 °F - 43.0 °F 86% 29.63 in 10.0 mi NNE 3.5 mph - N/A   Overcast
10:53 PM 48.0 °F - 42.1 °F 80% 29.62 in 10.0 mi ESE 4.6 mph - 0.00 in   Partly Cloudy
11:53 PM 52.0 °F - 43.0 °F 71% 29.65 in 7.0 mi WSW 6.9 mph - 0.05 in Rain Light Rain